ATLAS D DEB, 2329

Orbit data source: Space-Track

ATLAS D DEB, 2329 is space debris in LEO originally from a launch on Thu, 14 Jul 1966 UTC launched from the Air Force Western Test Range (AFWTR). Debris objects in space refer to the collection of defunct objects orbiting the Earth. Examples of debris include non-operational satellites, rocket bodies, and fragments generated from explosions, collisions, or faulty payload assembly.

Loading next visibility...
Identifier
2329, 1966-063D
Orbit
LEO
Last TLE update
4 hours ago
Origin
Manufacturer
Goodyear
Mission
Spacecraft
Bus & Motor
CONTAINER, Unknown motor
Mass
2 kg wet, 2 kg dry
Launch date (UTC)
1966-07-14 (59 years ago)
Launch vehicle
Unknown
Launch site
Air Force Western Test Range (AFWTR)
Object type
Payload
Rocket body
Debris
Shape & HBR
Half Cyl, 0.5 m
Radar Cross Section
0.210 m², Medium (>0.1 m² and < 1m²)

Expand to show TLE details & history

TLE from 4 hours ago
0 ATLAS D DEB
1  2329U 66063D   25186.79454441  .00000676  00000-0  31798-3 0  9997
2  2329 144.2838 145.5699 0022773 271.7703 120.6426 13.92031747974373
Epoch: 2025-07-05T19:04Z
TLE epoch observation values (Epoch: 2025-07-05T19:04:08.637Z)
Latitude
18.4147°
Longitude
-91.9219°
Altitude
928.533 km
Speed
7.387 km/s
True Right ascension
07h 52m 33s
True Declination
18° 18' 51"
Sunlit
Object was in daylight at epoch
Visualization orbit readout
Latitude
9.30219°
Longitude
129.46199°
Altitude
925.222 km
Speed
7.389 km/s
Apparent Right ascension
22h 48m 55s
Apparent Declination
-13° 28' 45"
Sunlit
Object is in daylight
Visualization observer readout
Local Sidereal Time
11:04:51
Azimuth
8.657° NNE
Elevation
-63.332°
Doppler factor
1
Orbital elements
Apogee altitude
941.104 km
Perigee altitude
907.844 km
Semi-major axis
7,302.611 km
Eccentricity
0.00228
Inclination
144.2838°
RAAN
145.5699°
Arg. of periapsis
271.7703°
True anomaly
Unknown
Mean anomaly
120.6426°
Eccentric anomaly
Unknown
Mean motion
3.47797 °/min
Orbital period
103.51 mins
BSTAR
0.00031798
Loading maneuver chart data...
Loading SW <> Apogee altitude chart data...
Loading historical data...
Loading historical data...
Loading historical data...
Loading historical data...
Loading historical data...
Loading historical data...
Loading historical data...

ATLAS D DEB Visibility forecast

Observer location: undefined°, undefined°

Span
Click to sort rows by Start time (UTC) header in descending order
Start Az.
Max El. time (UTC)
Max El. Az.
Max El.
End time (UTC)
End Az.
8 mins2025-07-06 12:40:33.298Z107.957° ESE2025-07-06 12:44:33.298Z161.016° S22.406°2025-07-06 12:48:33.298Z207.221° SW
9 mins2025-07-06 14:18:33.298Z100.747° ESE2025-07-06 14:22:33.298Z174.464° S36.218°2025-07-06 14:27:33.298Z239.552° WSW
9 mins2025-07-06 15:56:33.298Z105.954° ESE2025-07-06 16:00:33.298Z194° SSW40.694°2025-07-06 16:05:33.298Z259.081° W
9 mins2025-07-06 17:34:33.298Z127.557° SE2025-07-06 17:38:33.298Z203.815° SW36.201°2025-07-06 17:43:33.298Z266.473° W
7 mins2025-07-06 19:13:33.298Z165.554° S2025-07-06 19:16:33.298Z208.107° SW22.658°2025-07-06 19:20:33.298Z256.507° W
|